[ ตารางข้อมูล ] [ Min-Max ] [ วันนี้4 ] [ วันนี้2 ] [ เทียบ3วัน A ] [ เทียบ4วัน B ]   

วันนี้2   [ ◀ ช่วงเก่ากว่า ] [ ช่วงที่ 312 ] [ ช่วงใหม่กว่า ▶ ] [ ล่าสุด ]    [ 3 ชั่วโมง ] [ 6 ชั่วโมง ] [ 12 ชั่วโมง ] [ 24 ชั่วโมง ]   วันนี้2

อุณภูมิตู้ Knockdown4529  ราย 3 ชั่วโมง  ที่วัดได้ ในช่วงวันเวลา 31/03/2026 (12:46) ถึง 31/03/2026 (15:46) 
ความชื้นในตู้ Knockdown4529  ราย 3 ชั่วโมง  ที่วัดได้ ในช่วงวันเวลา 31/03/2026 (12:46) ถึง 31/03/2026 (15:46) 

 
DS18B20SHTC3 
IDDate d/m/Y & Timedata1
สูง
data2
ต่ำ
data3
นอก
temp
pcb
hum
pcb
Time
 7541  31/03/2026 15:43:55  32.3  31.8  31.5  32.0  69.6  15:43 
 7540  31/03/2026 15:39:13  32.4  31.9  31.9  32.0  69.4  15:39 
 7539  31/03/2026 15:34:31  32.4  31.9  32.0  32.1  69.3  15:34 
 7538  31/03/2026 15:29:49  32.5  31.9  31.9  32.0  69.1  15:29 
 7537  31/03/2026 15:25:07  32.6  31.9  31.9  32.2  69.1  15:25 
 7536  31/03/2026 15:20:26  32.6  31.9  31.7  32.1  68.9  15:20 
 7535  31/03/2026 15:15:44  32.7  31.9  31.8  32.3  68.9  15:15 
 7534  31/03/2026 15:11:02  32.8  31.9  32.3  32.1  68.9  15:11 
 7533  31/03/2026 15:06:20  32.8  31.9  32.2  32.3  68.8  15:06 
 7532  31/03/2026 15:01:38  32.8  31.9  32.5  32.1  68.6  15:01 
 7531  31/03/2026 14:56:56  32.8  31.9  32.3  32.2  68.6  14:56 
 7530  31/03/2026 14:52:14  32.8  31.9  32.4  32.2  68.5  14:52 
 7529  31/03/2026 14:47:32  32.9  31.8  32.3  32.2  68.3  14:47 
 7528  31/03/2026 14:42:50  32.9  31.8  32.2  32.2  68.2  14:42 
 7527  31/03/2026 14:38:08  32.9  31.8  32.4  32.1  68.2  14:38 
 7526  31/03/2026 14:33:26  32.9  31.8  32.4  32.3  68.0  14:33 
 7525  31/03/2026 14:28:45  32.9  31.8  32.7  32.3  68.2  14:28 
 7524  31/03/2026 14:24:03  32.9  31.8  32.6  32.3  68.0  14:24 
 7523  31/03/2026 14:19:21  32.9  31.8  32.4  32.2  68.0  14:19 
 7522  31/03/2026 14:14:40  32.9  31.8  32.6  32.2  68.0  14:14 
 7521  31/03/2026 14:09:58  32.9  31.8  32.9  32.3  68.2  14:09 
 7520  31/03/2026 14:05:16  32.9  31.7  33.1  32.2  68.0  14:05 
 7519  31/03/2026 14:00:34  32.9  31.7  33.2  32.2  67.9  14:00 
 7518  31/03/2026 13:55:52  32.8  31.7  32.8  32.3  68.1  13:55 

Data every 5 minute.


ใช้เวลาประมวลผล 0.00197 วินาที